Temperature
8 9 9 8 8 8 7 7 7 7 8 8 8 8 8 8 7 6 6 5 5 4 4 3 3 3 3 3 2 2 3 3 3 3 3 3 3 3 3 4 4 4 4 4
7 8 9 8 8 8 8 8 8 8 8 9 9 9 8 8 7 6 6 5 5 4 4 3 3 3 3 2 2 2 2 2 2 2 2 2 3 3 3 3 3 3 3 3
6 9 8 7 8 8 8 9 8 8 8 9 8 8 8 7 7 6 6 5 4 4 3 3 3 3 2 2 2 2 2 2 2 2 2 2 2 2 2 2 2 2 2 2
6 7 6 9 10 9 9 9 9 9 9 9 8 8 8 7 7 6 6 5 5 4 4 3 3 3 2 2 2 2 1 1 1 1 1 1 1 1 1 1 1 1 1 1
6 6 7 9 9 9 8 8 9 9 9 9 8 8 7 7 7 6 6 5 5 4 4 3 3 3 2 2 2 1 1 1 1 1 1 1 1 1 1 1 1 0 0 0
6 6 7 9 8 9 8 7 9 9 8 8 8 5 6 7 7 6 6 5 5 4 4 3 3 3 2 2 2 1 1 1 1 0 0 0 0 0 -0 -0 -0 -1 -1 -1
5 6 7 9 8 8 7 8 9 9 9 8 7 6 7 7 6 6 5 5 4 4 4 3 3 3 2 2 1 1 1 1 0 0 -0 -0 -0 -1 -1 -1 -1 -1 -1 -2
6 5 6 7 7 7 8 9 9 8 8 8 7 7 7 6 6 5 5 5 4 4 4 3 3 2 2 2 1 1 1 0 0 -0 -0 -1 -1 -1 -1 -2 -2 -2 -2 -2
7 7 9 9 8 9 8 8 8 8 7 7 7 6 6 6 5 5 5 4 4 4 3 3 3 2 2 1 1 1 0 0 -0 -1 -1 -1 -1 -1 -2 -2 -2 -3 -3 -3
6 7 9 9 9 9 8 8 7 7 7 6 6 6 5 5 5 5 4 4 4 4 3 3 3 2 2 1 1 1 0 -0 -1 -1 -1 -1 -2 -2 -3 -3 -3 -3 -4 -4
5 6 8 9 9 8 8 7 7 6 6 6 5 5 5 5 5 4 4 4 4 3 3 3 2 2 1 1 1 0 0 -0 -1 -1 -2 -2 -2 -3 -3 -4 -4 -4 -4 -5
5 7 7 8 8 7 7 6 6 6 6 5 5 5 5 4 4 4 4 4 3 3 3 3 2 2 1 1 0 0 -0 -1 -1 -2 -2 -2 -3 -3 -3 -4 -4 -5 -5 -5
7 7 7 7 7 6 6 6 5 5 5 5 4 4 4 4 4 4 3 3 3 3 3 2 2 1 1 0 -0 -0 -1 -1 -2 -2 -3 -3 -3 -4 -4 -4 -4 -5 -5 -5
7 6 6 6 6 6 5 5 5 4 4 4 4 4 3 3 3 3 3 3 3 2 2 2 1 1 1 0 -0 -1 -1 -2 -2 -3 -3 -3 -4 -4 -5 -5 -5 -5 -5 -6
6 6 5 5 5 5 5 4 4 4 4 3 3 3 3 3 3 3 3 2 2 2 2 1 1 1 0 -0 -1 -1 -2 -2 -2 -3 -3 -4 -4 -5 -5 -6 -6 -6 -6 -6
5 5 5 5 4 4 4 4 3 3 3 3 3 3 3 3 3 2 2 2 2 1 1 1 1 0 -0 -1 -1 -2 -2 -2 -3 -3 -4 -4 -5 -5 -6 -6 -6 -7 -7 -7
4 4 4 4 4 4 4 3 3 3 3 3 3 3 2 2 2 2 2 1 1 1 1 0 0 -0 -1 -1 -2 -2 -2 -3 -3 -4 -4 -5 -5 -6 -6 -7 -7 -7 -7 -8
4 4 4 4 4 3 3 3 3 3 3 2 2 2 2 2 2 2 1 1 1 0 0 -0 -0 -1 -1 -2 -2 -2 -3 -3 -4 -4 -5 -5 -6 -6 -7 -7 -7 -8 -8 -8
4 4 4 3 3 3 3 3 3 3 3 2 2 2 2 2 1 1 1 0 0 0 -0 -1 -1 -1 -2 -2 -2 -3 -3 -4 -4 -5 -5 -6 -6 -7 -7 -7 -7 -8 -8 -8
4 4 3 3 3 3 3 3 3 3 2 2 2 2 1 1 1 1 0 0 -0 -0 -1 -1 -2 -2 -2 -3 -3 -3 -4 -4 -5 -5 -6 -6 -7 -7 -7 -7 -8 -8 -8 -8
4 4 3 3 3 3 3 3 2 2 2 2 2 1 1 1 0 0 -0 -0 -1 -1 -1 -2 -2 -2 -3 -3 -4 -4 -4 -5 -5 -6 -6 -6 -7 -7 -7 -8 -8 -8 -8 -9
4 4 3 3 3 3 2 2 2 2 2 2 1 1 1 1 0 -0 -0 -1 -1 -2 -2 -2 -2 -3 -3 -4 -4 -4 -5 -5 -6 -6 -7 -7 -7 -7 -8 -8 -8 -8 -9 -9
4 4 3 3 3 2 2 2 2 2 1 1 1 1 0 0 -0 -0 -1 -1 -2 -2 -2 -2 -3 -3 -4 -4 -4 -5 -5 -6 -6 -7 -7 -7 -7 -8 -8 -8 -8 -9 -9 -9
4 4 3 3 2 2 2 2 2 1 1 1 1 0 -0 -0 -0 -1 -1 -1 -2 -2 -3 -3 -3 -4 -4 -4 -5 -5 -6 -6 -6 -7 -7 -7 -8 -8 -8 -8 -8 -9 -9 -9
4 3 3 2 2 2 2 1 1 1 1 0 0 -0 -0 -1 -1 -1 -1 -2 -2 -3 -3 -3 -4 -4 -5 -5 -5 -6 -6 -6 -7 -7 -7 -8 -8 -8 -8 -8 -9 -9 -9 -9
3 3 3 2 2 2 1 1 1 1 0 0 0 -0 -1 -1 -1 -1 -2 -2 -3 -3 -3 -4 -4 -5 -5 -5 -6 -6 -6 -6 -7 -7 -7 -8 -8 -8 -8 -9 -9 -9 -9 -9
3 2 2 2 2 1 1 1 1 0 0 -0 -0 -0 -1 -1 -2 -2 -2 -3 -3 -3 -4 -4 -4 -5 -5 -6 -6 -6 -6 -7 -7 -7 -8 -8 -8 -8 -8 -9 -9 -9 -9 -9
Wind_Speed
7 7 6 6 6 6 7 7 5 5 5 5 3 3 2 2 2 1 1 1 1 2 3 4 5 5 6 7 7 7 7 7 7 7 7 7 7 7 7 8 8 7 7 7
6 7 7 8 9 9 9 9 10 9 9 4 1 1 1 2 2 2 1 1 1 1 2 3 4 4 5 6 7 7 7 7 7 8 8 8 8 8 8 8 8 8 8 8
4 4 6 7 8 9 7 6 7 8 6 2 1 3 3 3 3 3 2 1 1 1 1 2 2 3 4 5 5 6 7 7 8 8 8 8 8 8 8 8 8 8 8 8
5 5 5 5 2 2 5 7 7 6 4 2 2 3 3 3 4 3 2 2 2 2 2 2 3 3 4 4 5 5 6 7 7 7 7 7 8 8 8 7 7 7 8 8
3 5 8 4 3 3 3 5 6 7 5 4 1 1 3 4 3 3 3 3 3 3 3 3 3 2 3 3 4 5 6 6 6 7 7 7 8 7 6 6 6 6 6 7
3 4 5 2 4 3 1 5 3 4 3 2 3 2 3 3 4 3 4 4 3 4 4 3 2 2 3 3 3 4 4 5 5 6 6 6 6 6 5 5 5 5 6 6
6 6 7 2 5 5 3 3 2 2 2 3 4 4 2 3 3 4 4 4 4 5 4 3 2 2 2 2 2 2 3 4 4 5 5 5 5 5 5 5 5 5 5 5
5 6 8 5 6 5 4 1 1 1 1 2 3 2 2 3 4 4 4 4 5 4 4 3 3 3 2 1 0 1 2 2 3 4 4 4 4 4 5 5 5 5 5 6
6 7 2 7 6 3 1 1 2 1 2 2 3 3 4 4 4 4 5 5 5 5 5 4 4 3 3 2 1 1 1 2 2 3 3 3 4 5 5 5 4 5 5 5
6 8 6 7 7 5 3 3 3 3 3 3 5 5 4 4 4 5 5 5 6 6 6 5 5 4 3 2 1 0 1 2 2 3 3 4 3 3 3 4 4 5 5 5
8 9 9 8 7 5 3 3 3 4 4 5 5 5 5 4 5 5 5 5 6 6 6 6 5 5 4 3 2 1 1 1 1 2 2 3 3 2 2 2 3 4 4 4
9 6 4 3 1 0 2 4 4 4 5 4 4 5 5 5 4 4 5 5 5 6 6 6 5 5 4 4 2 1 1 1 1 1 2 2 3 3 4 4 6 7 7 7
11 5 4 4 3 2 4 4 4 4 5 5 5 5 5 4 4 4 5 5 6 7 6 6 6 5 5 4 3 2 2 1 1 1 2 2 3 3 4 5 7 7 8 9
9 7 7 7 6 4 4 3 4 5 5 5 4 4 3 3 3 4 5 5 6 6 6 6 6 5 5 5 4 3 2 1 1 1 1 1 2 3 3 4 5 5 7 10
9 8 8 5 4 4 3 3 4 5 4 4 3 3 3 4 4 4 4 4 5 5 6 6 6 5 5 5 4 3 2 1 0 1 1 1 2 2 3 4 4 5 5 6
7 7 7 7 7 6 5 5 6 6 4 4 3 3 3 3 3 3 3 5 5 6 6 6 5 5 5 5 4 3 2 2 1 1 1 1 2 2 3 4 4 5 5 5
7 8 8 7 8 7 7 6 6 6 5 5 5 3 2 2 2 3 3 4 4 4 5 5 5 5 5 5 4 3 2 2 2 1 1 2 2 3 3 4 4 5 5 7
9 9 8 7 6 6 6 6 5 5 5 5 3 3 4 5 5 4 4 3 3 3 4 5 5 5 5 5 4 3 2 2 1 2 2 2 2 2 3 4 5 5 5 6
6 7 6 6 5 5 5 5 5 5 4 4 4 5 5 5 5 4 4 5 5 5 4 5 7 6 5 5 4 3 3 2 2 2 2 3 3 2 3 3 4 5 5 6
4 4 4 4 4 4 5 5 5 4 4 4 4 4 4 4 4 4 5 5 5 4 5 6 6 5 5 5 5 3 3 3 2 2 2 2 2 3 3 4 4 5 5 5
5 5 5 5 5 5 6 5 5 5 4 4 5 6 5 4 4 4 4 4 3 4 5 7 5 4 4 5 5 3 3 2 2 2 2 2 2 3 3 4 4 5 5 5
5 5 6 5 5 5 4 4 5 5 5 5 5 5 5 4 4 4 4 4 4 7 5 4 4 6 6 6 3 3 3 2 2 2 2 2 3 3 3 4 4 5 5 5
5 5 6 6 6 4 3 3 4 5 6 6 6 6 6 5 5 4 4 3 4 7 5 4 6 8 8 5 3 3 3 3 3 3 3 3 3 3 3 4 4 4 5 5
5 5 5 4 4 4 5 5 4 4 5 4 5 6 5 4 3 3 3 6 8 8 4 6 9 9 8 4 3 3 3 3 3 3 3 3 3 3 3 4 4 5 5 6
6 6 5 6 6 6 6 5 4 4 4 4 4 5 5 4 4 4 4 5 8 7 4 6 9 8 5 3 4 4 3 3 3 3 3 3 3 3 3 4 4 5 5 5
7 7 7 8 7 6 5 5 5 5 5 4 4 4 4 4 4 4 4 5 6 7 5 4 4 5 4 4 4 4 3 3 3 3 3 3 3 4 4 4 5 5 5 6
6 6 5 5 6 6 6 6 7 7 7 7 5 5 6 5 5 5 6 5 5 5 4 4 4 4 4 4 4 3 3 3 3 3 3 3 3 4 4 5 5 5 5 5
Wind_Direction
283 283 274 262 257 237 222 226 241 268 276 273 250 242 229 202 194 198 148 89 44 20 17 21 25 21 19 16 12 12 15 18 16 11 12 13 15 18 21 26 27 24 23 21
279 256 258 262 251 240 237 233 243 261 273 263 211 185 207 215 209 222 225 172 92 57 40 29 25 23 25 20 18 20 20 19 18 18 16 15 15 17 21 23 22 24 24 22
286 295 296 271 240 219 218 216 223 242 247 212 222 234 232 230 222 225 220 167 145 126 89 56 42 36 32 23 23 24 21 20 21 19 18 14 15 19 18 17 17 18 19 20
289 318 265 241 106 164 222 237 224 235 252 242 240 235 229 223 216 215 184 164 152 130 107 83 64 52 44 36 29 28 23 21 19 17 17 16 21 21 17 16 16 16 16 16
281 285 277 236 179 170 209 261 222 223 235 227 208 340 267 219 189 185 164 147 143 136 122 102 80 66 58 41 30 29 22 15 14 14 13 14 16 13 11 13 15 11 8 10
261 268 263 248 132 111 102 272 213 180 202 195 150 238 259 150 144 150 142 140 138 130 115 111 96 82 71 44 31 21 9 5 7 8 11 12 7 4 3 6 4 358 360 2
239 253 266 197 138 131 183 245 123 134 167 180 196 214 183 146 154 160 155 152 146 137 135 136 119 104 98 63 30 4 359 4 5 3 4 6 2 359 353 351 349 350 353 356
207 227 251 161 149 193 217 121 128 161 185 219 233 233 187 176 178 173 169 167 160 152 154 146 136 138 145 152 14 8 358 360 357 356 357 1 353 347 346 346 349 350 357 359
218 225 224 175 201 214 145 251 257 247 254 245 248 241 230 213 200 192 187 182 171 166 167 163 159 160 175 186 131 8 348 349 347 347 349 351 350 349 346 350 355 354 357 355
268 266 256 227 229 232 221 239 254 253 252 246 247 247 242 226 212 202 194 187 177 173 181 185 176 171 174 153 135 104 333 335 340 342 344 350 354 359 357 354 353 350 351 347
253 269 279 256 231 228 231 236 254 261 251 242 244 248 242 237 223 209 199 186 178 183 191 190 173 171 164 151 147 183 267 315 331 340 343 340 343 348 350 339 337 335 331 328
237 237 239 254 159 105 256 255 257 261 265 261 247 248 244 237 225 211 197 185 183 187 189 183 171 170 163 155 158 176 257 311 333 339 337 339 339 335 332 323 330 332 328 327
242 254 268 282 288 263 258 267 266 257 255 262 258 250 242 237 221 203 197 192 191 190 185 176 170 171 165 160 166 179 199 225 296 323 336 339 335 332 328 329 332 333 331 332
240 246 257 251 251 248 251 264 268 264 257 249 250 249 243 239 224 210 206 198 185 177 176 172 171 177 165 159 168 184 196 214 242 271 307 319 317 318 319 321 322 323 326 329
238 227 235 249 251 246 247 255 261 261 261 264 251 236 230 228 223 220 200 175 167 172 175 170 175 180 158 158 170 185 190 187 201 291 299 298 306 310 310 312 312 316 320 327
238 234 235 240 244 242 242 245 248 252 252 256 251 238 229 221 214 195 177 170 174 186 183 175 182 176 157 159 168 182 191 191 183 270 286 296 306 309 310 313 315 317 319 321
226 232 229 234 237 235 232 234 240 245 245 246 246 233 211 196 192 193 191 184 182 184 177 174 175 159 155 163 170 179 178 192 216 266 272 284 295 299 304 310 312 313 312 318
220 225 222 225 231 235 234 233 236 239 238 240 237 213 204 201 206 208 193 170 159 167 174 167 162 157 160 166 168 170 174 184 202 235 260 271 286 291 298 304 307 309 312 320
228 228 226 226 226 227 231 234 236 235 233 220 213 217 218 213 203 192 174 173 185 203 199 173 170 163 166 173 170 173 179 192 213 238 251 276 289 291 294 299 304 307 313 319
222 220 219 226 227 227 234 237 233 230 224 209 206 211 215 210 188 177 179 198 211 202 172 166 165 168 170 177 178 177 184 196 213 230 237 252 271 283 290 299 303 305 309 312
213 212 215 223 234 238 234 230 223 226 223 203 201 208 209 201 183 177 186 218 215 169 164 172 170 170 170 180 185 180 186 198 209 219 232 250 270 280 286 292 299 304 307 311
204 207 215 219 224 237 235 216 210 213 213 208 201 194 191 194 191 195 208 210 187 171 166 171 170 179 181 180 177 179 183 193 208 220 229 241 257 269 278 288 294 299 303 305
206 208 211 212 216 221 223 217 211 208 210 207 201 197 198 198 191 194 218 199 173 178 170 174 182 185 184 175 173 179 186 197 211 224 234 241 252 262 271 280 285 292 295 299
211 213 213 205 189 201 225 230 215 206 202 204 204 197 191 190 204 207 192 174 177 179 176 183 186 188 183 171 174 181 193 206 215 223 233 243 254 262 267 274 281 287 289 293
212 211 206 199 207 219 222 213 204 204 195 202 205 197 191 191 196 187 166 171 180 177 175 188 190 190 180 171 181 189 198 210 217 220 225 239 249 256 263 269 274 281 284 286
211 215 217 217 217 214 203 197 207 210 200 206 209 197 186 177 170 164 162 170 177 179 175 173 181 188 181 183 189 195 203 224 243 238 231 238 248 255 263 268 273 276 280 282
217 218 219 225 224 212 205 204 211 214 207 204 207 194 183 176 172 171 170 172 176 176 173 173 176 180 184 188 192 199 204 211 217 224 230 236 244 252 259 264 269 273 277 281
Height
1494 1489 1488 1488 1487 1486 1488 1488 1489 1482 1478 1475 1474 1474 1474 1474 1474 1474 1474 1473 1472 1470 1468 1466 1464 1462 1460 1457 1455 1453 1450 1448 1446 1444 1442 1441 1439 1438 1436 1435 1434 1433 1433 1432
1494 1486 1484 1484 1481 1480 1481 1480 1480 1478 1476 1471 1471 1471 1472 1472 1472 1472 1472 1471 1471 1469 1468 1466 1464 1462 1460 1458 1456 1454 1452 1449 1447 1445 1444 1442 1440 1439 1437 1435 1434 1433 1432 1431
1494 1482 1482 1482 1472 1473 1473 1471 1473 1475 1472 1469 1470 1470 1470 1470 1470 1470 1470 1469 1469 1468 1467 1465 1464 1462 1460 1459 1457 1454 1452 1450 1448 1446 1444 1443 1441 1439 1437 1436 1434 1433 1431 1430
1495 1490 1492 1472 1464 1465 1467 1466 1467 1466 1466 1466 1467 1467 1467 1467 1467 1467 1468 1467 1467 1466 1466 1465 1464 1462 1460 1459 1457 1455 1453 1451 1449 1447 1445 1443 1441 1439 1438 1436 1434 1432 1431 1429
1496 1492 1480 1466 1464 1465 1467 1465 1461 1462 1463 1464 1465 1465 1465 1465 1465 1465 1466 1465 1465 1465 1464 1463 1463 1461 1460 1458 1457 1455 1453 1451 1449 1447 1446 1444 1442 1440 1438 1436 1434 1432 1431 1429
1495 1492 1483 1465 1464 1463 1467 1467 1458 1458 1460 1462 1463 1467 1464 1462 1463 1463 1463 1463 1463 1463 1462 1462 1461 1460 1459 1458 1456 1455 1453 1452 1450 1448 1446 1444 1442 1440 1438 1436 1434 1433 1431 1429
1496 1490 1475 1463 1462 1464 1471 1465 1458 1458 1459 1460 1461 1462 1462 1460 1460 1461 1461 1461 1461 1461 1460 1460 1459 1459 1458 1457 1456 1455 1453 1452 1450 1448 1446 1445 1443 1441 1439 1436 1435 1433 1431 1429
1487 1487 1477 1461 1462 1464 1461 1458 1457 1458 1458 1458 1458 1458 1458 1458 1458 1458 1458 1458 1458 1458 1457 1457 1457 1457 1456 1455 1455 1454 1452 1451 1450 1448 1446 1444 1443 1440 1438 1436 1434 1432 1430 1428
1473 1469 1459 1457 1457 1456 1456 1456 1456 1456 1456 1456 1456 1455 1455 1455 1454 1454 1455 1455 1455 1454 1454 1454 1454 1454 1454 1454 1453 1452 1451 1450 1449 1447 1445 1444 1442 1439 1437 1435 1433 1431 1429 1427
1467 1457 1454 1454 1454 1454 1454 1453 1453 1453 1453 1453 1452 1452 1451 1451 1451 1451 1451 1451 1451 1451 1451 1451 1451 1451 1452 1451 1451 1450 1449 1448 1447 1446 1444 1442 1440 1438 1436 1434 1432 1430 1428 1425
1462 1455 1453 1449 1449 1449 1450 1449 1450 1450 1449 1449 1448 1448 1447 1447 1447 1446 1446 1447 1447 1447 1447 1448 1448 1448 1449 1449 1448 1448 1447 1446 1445 1444 1442 1440 1439 1437 1435 1433 1431 1429 1426 1424
1455 1449 1449 1446 1446 1446 1446 1446 1445 1445 1445 1445 1444 1444 1443 1443 1442 1442 1442 1442 1443 1443 1444 1444 1445 1445 1445 1445 1445 1445 1444 1443 1442 1441 1440 1438 1436 1435 1433 1431 1429 1427 1425 1423
1444 1443 1444 1443 1443 1442 1442 1442 1441 1440 1440 1440 1439 1439 1439 1438 1438 1438 1438 1438 1438 1439 1440 1440 1441 1441 1441 1442 1442 1441 1441 1440 1439 1438 1437 1436 1434 1432 1430 1429 1427 1425 1422 1420
1439 1440 1438 1438 1438 1438 1437 1437 1436 1436 1435 1435 1434 1434 1434 1434 1433 1433 1433 1433 1434 1435 1435 1436 1437 1437 1438 1438 1438 1438 1437 1437 1436 1435 1434 1433 1431 1429 1427 1425 1423 1421 1419 1417
1433 1433 1433 1433 1433 1433 1433 1432 1431 1430 1430 1430 1430 1429 1429 1429 1429 1429 1429 1429 1430 1431 1431 1432 1432 1433 1434 1434 1434 1434 1434 1433 1433 1432 1431 1429 1428 1426 1424 1422 1420 1418 1416 1414
1427 1427 1427 1427 1427 1427 1427 1427 1426 1426 1425 1425 1425 1425 1425 1425 1425 1424 1425 1425 1426 1426 1427 1428 1428 1429 1430 1430 1430 1430 1430 1430 1429 1429 1428 1426 1425 1423 1421 1419 1417 1415 1413 1411
1422 1421 1421 1421 1421 1422 1422 1422 1422 1422 1421 1421 1420 1420 1420 1421 1420 1420 1421 1421 1422 1422 1423 1424 1425 1425 1426 1426 1427 1427 1427 1426 1426 1425 1424 1423 1421 1420 1418 1417 1415 1413 1411 1409
1414 1415 1416 1416 1417 1417 1417 1417 1417 1417 1417 1417 1417 1417 1416 1416 1416 1417 1417 1417 1418 1418 1419 1419 1420 1421 1422 1422 1423 1423 1423 1422 1422 1421 1420 1419 1418 1417 1415 1414 1412 1410 1408 1406
1408 1409 1410 1411 1412 1412 1412 1413 1413 1413 1413 1413 1413 1413 1413 1413 1413 1413 1413 1414 1414 1414 1415 1416 1416 1417 1418 1418 1419 1419 1419 1418 1418 1417 1417 1416 1415 1413 1412 1410 1409 1407 1405 1403
1403 1405 1406 1407 1407 1408 1408 1409 1409 1408 1408 1409 1409 1409 1409 1409 1409 1410 1410 1410 1410 1411 1411 1412 1412 1413 1413 1414 1414 1415 1415 1414 1414 1414 1413 1412 1411 1410 1409 1407 1406 1404 1402 1400
1400 1401 1402 1403 1404 1404 1404 1405 1404 1404 1404 1404 1405 1405 1405 1406 1406 1406 1406 1406 1407 1408 1408 1408 1409 1409 1410 1410 1410 1411 1411 1411 1410 1410 1409 1408 1408 1407 1405 1404 1403 1401 1399 1397
1397 1398 1399 1399 1400 1400 1400 1400 1401 1400 1401 1401 1401 1401 1402 1402 1402 1403 1403 1404 1404 1404 1404 1404 1405 1406 1406 1406 1407 1407 1407 1407 1407 1407 1406 1405 1404 1403 1402 1401 1399 1398 1396 1394
1394 1395 1395 1396 1396 1396 1396 1396 1397 1397 1397 1397 1397 1397 1398 1398 1399 1399 1399 1400 1400 1400 1400 1401 1401 1402 1403 1403 1403 1404 1404 1404 1404 1403 1403 1402 1401 1400 1399 1397 1396 1395 1393 1391
1391 1392 1392 1392 1392 1392 1392 1392 1392 1393 1393 1393 1393 1394 1394 1394 1395 1395 1396 1396 1396 1396 1397 1397 1398 1398 1399 1399 1400 1400 1400 1400 1400 1400 1399 1398 1397 1396 1395 1394 1393 1391 1390 1388
1387 1387 1388 1387 1387 1387 1387 1388 1388 1388 1388 1388 1389 1389 1390 1390 1391 1391 1392 1392 1392 1393 1393 1394 1394 1395 1395 1396 1396 1397 1397 1397 1396 1396 1395 1395 1394 1393 1392 1391 1389 1388 1386 1385
1382 1382 1382 1382 1382 1382 1382 1382 1382 1382 1383 1383 1384 1385 1385 1386 1386 1387 1387 1388 1389 1389 1390 1391 1391 1391 1392 1392 1393 1393 1393 1393 1393 1392 1392 1391 1390 1389 1388 1387 1386 1384 1383 1381
1376 1376 1376 1376 1376 1376 1376 1376 1376 1376 1377 1377 1378 1379 1380 1381 1382 1382 1383 1384 1384 1385 1386 1387 1387 1388 1388 1389 1389 1389 1389 1389 1389 1388 1388 1387 1386 1385 1384 1383 1382 1381 1379 1378